Torna al catalogo

STARLINK-33958

AttivoComunicazioniVLEO
NORAD 63850·PAYLOAD·🇺🇸 United States

Lanciato May 7, 2025 da Cape Canaveral Space Force Station

Loading…

Prossimi Passaggi (prossime 24 ore)

TLE

AggiornatoSource: CelesTrak SupGP

Epoca: Sep 14, 2026, 23:04 UTC

1 63850C 25093Q   26257.96159722  .00060533  00000+0  21924-2 0  2577
2 63850  43.0003  89.3086 0001493 274.2285 142.2433 15.27549200    10

Traccia STARLINK-33958 in tempo reale con AllMySat

Download on the App Store